When you browse on this site, cookies collect data to enhance your experience and personalize the content and advertising you see.
Visit our Privacy Policy to learn more. By continuing to use the site, you agree to this use of cookies and data.
  • en Suisse
  • Liste des pays
  • À 7 jours
  • Température de l'eau
  • Carte satellitaire
  • Carte météo
  • Widgets météo
  • user-avatar
    Se connecter

    Météo par heure à Sulukta

    Ce jour, 26 Juin, Mercredi

    Heure Température Précipitation Vent Pression Humidité
    00:00 +22°C° 0 mm 1 m/s 648 mmHg 36%
    01:00 +21°C° 0 mm 1 m/s 647 mmHg 37%
    02:00 +21°C° 0 mm 1 m/s 647 mmHg 37%
    03:00 +20°C° 0 mm 1 m/s 647 mmHg 38%
    04:00 +20°C° 0 mm 1 m/s 647 mmHg 38%
    05:00 +19°C° 0 mm 2 m/s 647 mmHg 37%
    06:00 +21°C° 0 mm 2 m/s 648 mmHg 34%
    07:00 +24°C° 0 mm 1 m/s 648 mmHg 31%
    08:00 +26°C° 0 mm 1 m/s 649 mmHg 27%
    09:00 +27°C° 0 mm 1 m/s 649 mmHg 26%
    10:00 +28°C° 0 mm 2 m/s 649 mmHg 24%
    11:00 +29°C° 0 mm 2 m/s 649 mmHg 22%
    12:00 +30°C° 0 mm 3 m/s 649 mmHg 21%
    13:00 +30°C° 0 mm 3 m/s 649 mmHg 20%
    14:00 +31°C° 0 mm 3 m/s 649 mmHg 20%
    15:00 +31°C° 0.1 mm 3 m/s 649 mmHg 21%
    16:00 +30°C° 0.1 mm 4 m/s 648 mmHg 22%
    17:00 +30°C° 0.1 mm 4 m/s 648 mmHg 23%
    18:00 +28°C° 0.1 mm 4 m/s 648 mmHg 26%
    19:00 +27°C° 0.1 mm 3 m/s 648 mmHg 30%
    20:00 +25°C° 0.1 mm 3 m/s 647 mmHg 33%
    21:00 +25°C° 0 mm 4 m/s 647 mmHg 35%
    22:00 +23°C° 0 mm 4 m/s 647 mmHg 37%
    23:00 +22°C° 0 mm 4 m/s 646 mmHg 38%

    Demain, 27 Juin, Jeudi

    Heure Température Précipitation Vent Pression Humidité
    00:00 +22°C° 0 mm 4 m/s 646 mmHg 38%
    01:00 +22°C° 0 mm 4 m/s 646 mmHg 37%
    02:00 +22°C° 0 mm 4 m/s 646 mmHg 36%
    03:00 +21°C° 0 mm 3 m/s 646 mmHg 36%
    04:00 +21°C° 0 mm 3 m/s 645 mmHg 36%
    05:00 +21°C° 0 mm 2 m/s 645 mmHg 35%
    06:00 +24°C° 0 mm 2 m/s 646 mmHg 31%
    07:00 +25°C° 0 mm 1 m/s 647 mmHg 26%
    08:00 +27°C° 0 mm 1 m/s 647 mmHg 22%
    09:00 +28°C° 0 mm 2 m/s 647 mmHg 20%
    10:00 +29°C° 0 mm 3 m/s 647 mmHg 19%
    11:00 +30°C° 0 mm 3 m/s 648 mmHg 18%
    12:00 +32°C° 0 mm 4 m/s 647 mmHg 17%
    13:00 +32°C° 0 mm 4 m/s 647 mmHg 17%
    14:00 +32°C° 0 mm 5 m/s 647 mmHg 16%
    15:00 +32°C° 0 mm 4 m/s 647 mmHg 17%
    16:00 +32°C° 0 mm 4 m/s 647 mmHg 17%
    17:00 +31°C° 0 mm 3 m/s 647 mmHg 18%
    18:00 +29°C° 0 mm 2 m/s 646 mmHg 22%
    19:00 +27°C° 0 mm 2 m/s 646 mmHg 26%
    20:00 +25°C° 0 mm 1 m/s 646 mmHg 30%
    21:00 +25°C° 0 mm 1 m/s 646 mmHg 30%
    22:00 +25°C° 0 mm 2 m/s 646 mmHg 30%
    23:00 +24°C° 0 mm 3 m/s 646 mmHg 31%

    Après-demain, 28 Juin, Vendredi

    Heure Température Précipitation Vent Pression Humidité
    00:00 +23°C° 0 mm 2 m/s 645 mmHg 33%
    01:00 +21°C° 0 mm 2 m/s 645 mmHg 36%
    02:00 +20°C° 0 mm 2 m/s 644 mmHg 39%
    03:00 +20°C° 0 mm 2 m/s 644 mmHg 39%
    04:00 +20°C° 0 mm 2 m/s 644 mmHg 39%
    05:00 +19°C° 0 mm 2 m/s 644 mmHg 39%
    06:00 +23°C° 0 mm 2 m/s 645 mmHg 34%
    07:00 +25°C° 0 mm 1 m/s 645 mmHg 30%
    08:00 +27°C° 0 mm 1 m/s 646 mmHg 25%
    09:00 +28°C° 0 mm 2 m/s 646 mmHg 24%
    10:00 +29°C° 0 mm 2 m/s 646 mmHg 22%
    11:00 +30°C° 0 mm 3 m/s 646 mmHg 21%
    12:00 +30°C° 0 mm 3 m/s 646 mmHg 21%
    13:00 +31°C° 0 mm 3 m/s 646 mmHg 21%
    14:00 +31°C° 0 mm 3 m/s 646 mmHg 21%
    15:00 +29°C° 0.2 mm 4 m/s 645 mmHg 29%
    16:00 +26°C° 0.2 mm 5 m/s 644 mmHg 37%
    17:00 +23°C° 0.2 mm 6 m/s 643 mmHg 45%
    18:00 +22°C° 0.3 mm 5 m/s 644 mmHg 47%
    19:00 +22°C° 0.3 mm 4 m/s 644 mmHg 48%
    20:00 +22°C° 0.3 mm 3 m/s 644 mmHg 50%
    21:00 +22°C° 0 mm 3 m/s 644 mmHg 49%
    22:00 +21°C° 0 mm 2 m/s 644 mmHg 48%
    23:00 +21°C° 0 mm 2 m/s 644 mmHg 47%

    29 Juin, Samedi

    Heure Température Précipitation Vent Pression Humidité
    00:00 +22°C° 0 mm 1 m/s 644 mmHg 46%
    01:00 +21°C° 0 mm 1 m/s 644 mmHg 46%
    02:00 +21°C° 0 mm 1 m/s 643 mmHg 46%
    03:00 +21°C° 0 mm 1 m/s 643 mmHg 45%
    04:00 +20°C° 0 mm 1 m/s 643 mmHg 45%
    05:00 +20°C° 0 mm 1 m/s 643 mmHg 45%
    06:00 +22°C° 0 mm 1 m/s 644 mmHg 40%
    07:00 +24°C° 0 mm 2 m/s 644 mmHg 35%
    08:00 +26°C° 0 mm 2 m/s 645 mmHg 31%
    09:00 +27°C° 0 mm 3 m/s 645 mmHg 29%
    10:00 +29°C° 0 mm 3 m/s 646 mmHg 28%
    11:00 +30°C° 0 mm 4 m/s 646 mmHg 26%
    12:00 +30°C° 0.1 mm 4 m/s 646 mmHg 25%
    13:00 +32°C° 0.1 mm 4 m/s 646 mmHg 25%
    14:00 +32°C° 0.1 mm 4 m/s 645 mmHg 24%
    15:00 +29°C° 0.5 mm 4 m/s 645 mmHg 28%
    16:00 +28°C° 0.5 mm 5 m/s 644 mmHg 33%
    17:00 +26°C° 0.5 mm 5 m/s 644 mmHg 37%
    18:00 +25°C° 0.3 mm 4 m/s 644 mmHg 39%
    19:00 +25°C° 0.3 mm 3 m/s 644 mmHg 41%
    20:00 +25°C° 0.3 mm 2 m/s 644 mmHg 43%
    21:00 +24°C° 0 mm 2 m/s 644 mmHg 43%
    22:00 +23°C° 0 mm 1 m/s 644 mmHg 43%
    23:00 +23°C° 0 mm 1 m/s 644 mmHg 42%

    30 Juin, Dimanche

    Heure Température Précipitation Vent Pression Humidité
    00:00 +22°C° 0 mm 1 m/s 644 mmHg 42%
    01:00 +22°C° 0 mm 1 m/s 643 mmHg 41%
    02:00 +22°C° 0 mm 1 m/s 643 mmHg 40%
    03:00 +21°C° 0 mm 1 m/s 643 mmHg 40%
    04:00 +21°C° 0 mm 1 m/s 643 mmHg 40%
    05:00 +21°C° 0 mm 1 m/s 643 mmHg 40%
    06:00 +23°C° 0 mm 1 m/s 644 mmHg 36%
    07:00 +25°C° 0 mm 1 m/s 645 mmHg 31%
    08:00 +28°C° 0 mm 1 m/s 645 mmHg 26%
    09:00 +29°C° 0 mm 2 m/s 646 mmHg 25%
    10:00 +30°C° 0 mm 2 m/s 646 mmHg 24%
    11:00 +31°C° 0 mm 3 m/s 646 mmHg 23%
    12:00 +33°C° 0 mm 3 m/s 646 mmHg 22%
    13:00 +33°C° 0 mm 3 m/s 646 mmHg 21%
    14:00 +34°C° 0 mm 3 m/s 646 mmHg 21%
    15:00 +34°C° 0 mm 3 m/s 646 mmHg 20%
    16:00 +34°C° 0 mm 2 m/s 646 mmHg 20%
    17:00 +34°C° 0 mm 2 m/s 646 mmHg 20%
    18:00 +31°C° 0 mm 2 m/s 645 mmHg 24%
    19:00 +29°C° 0 mm 2 m/s 645 mmHg 28%
    20:00 +27°C° 0 mm 1 m/s 645 mmHg 32%
    21:00 +27°C° 0 mm 1 m/s 644 mmHg 33%
    22:00 +26°C° 0 mm 1 m/s 644 mmHg 33%
    23:00 +26°C° 0 mm 1 m/s 644 mmHg 34%

    1 Juillet, Lundi

    Heure Température Précipitation Vent Pression Humidité
    00:00 +25°C° 0 mm 1 m/s 644 mmHg 35%
    01:00 +25°C° 0 mm 1 m/s 644 mmHg 35%
    02:00 +24°C° 0 mm 1 m/s 644 mmHg 36%
    03:00 +23°C° 0 mm 1 m/s 644 mmHg 37%
    04:00 +23°C° 0 mm 1 m/s 644 mmHg 39%
    05:00 +22°C° 0 mm 1 m/s 644 mmHg 40%
    06:00 +25°C° 0 mm 1 m/s 644 mmHg 35%
    07:00 +25°C° 0 mm 0 m/s 645 mmHg 30%
    08:00 +28°C° 0 mm 0 m/s 646 mmHg 26%
    09:00 +31°C° 0 mm 1 m/s 646 mmHg 24%
    10:00 +32°C° 0 mm 2 m/s 647 mmHg 23%
    11:00 +34°C° 0 mm 3 m/s 647 mmHg 21%
    12:00 +34°C° 0 mm 3 m/s 647 mmHg 21%
    13:00 +35°C° 0 mm 4 m/s 647 mmHg 20%
    14:00 +35°C° 0 mm 4 m/s 647 mmHg 19%
    15:00 +35°C° 0 mm 4 m/s 647 mmHg 19%
    16:00 +35°C° 0 mm 5 m/s 647 mmHg 19%
    17:00 +35°C° 0 mm 5 m/s 647 mmHg 19%
    18:00 +33°C° 0 mm 4 m/s 646 mmHg 22%
    19:00 +30°C° 0 mm 3 m/s 646 mmHg 25%
    20:00 +28°C° 0 mm 1 m/s 645 mmHg 28%
    21:00 +27°C° 0 mm 1 m/s 646 mmHg 28%
    22:00 +27°C° 0 mm 2 m/s 646 mmHg 28%
    23:00 +26°C° 0 mm 2 m/s 646 mmHg 27%
    Voir plus